Weather History for KCHS - November, 2010

Change the Weather History Date:

Monday, November 1, 2010

  Actual Average Record
Temperature  
Mean Temperature 64 °F 62 °F  
Max Temperature 77 °F 73 °F 88 °F (1961)
Min Temperature 51 °F 51 °F 32 °F (1954)
Degree Days  
Heating Degree Days 1 4  
Month to date heating degree days 1 4  
Since 1 July heating degree days 33 73  
Cooling Degree Days 0 2  
Month to date cooling degree days 0 2  
Year to date cooling degree days 2687 2266  
Growing Degree Days 16 (Base 50)    
Moisture  
Dew Point 58 °F    
Average Humidity 70    
Maximum Humidity 100    
Minimum Humidity 40    
Precipitation  
Precipitation 0.00 in 0.08 in 5.24 in (1969)
Month to date precipitation 0.00 0.08  
Year to date precipitation 54.79 45.57  
Snow  
Snow 0.00 in 0.00 in - ()
Month to date snowfall 0.0  
Since 1 July snowfall 0.0 0.0  
Since 1 September snowfall 0.0 0.0  
Snow Depth 0.00 in    
Sea Level Pressure  
Sea Level Pressure 30.14 in    
Wind  
Wind Speed 4 mph (NE)    
Max Wind Speed 13 mph    
Max Gust Speed 18 mph    
Visibility 6 miles    
Events Fog    
T = Trace of Precipitation, MM = Missing Value Source: NWS Daily Summary

Daily Weather History Graph

Daily Weather History Graph

Search for Another Location

Airport or City:

Trip Planner

Search our weather history database for the weather conditions in past years. The results will help you decide how hot, cold, wet, or windy it might be!

Date:

Astronomy

Nov. 01, 2010 Rise Set
Actual Time 7:38 AM EDT 6:28 PM EDT
Civil Twilight 7:12 AM EDT 6:54 PM EDT
Nautical Twilight 6:43 AM EDT 7:23 PM EDT
Astronomical Twilight 6:14 AM EDT 7:52 PM EDT
Moon 2:29 AM EDT (11/1) 3:21 PM EDT (11/1)
Length of Visible Light 11h 41m
Length of Day
10h 50m
Waning Crescent, 26% of the Moon is Illuminated
Nov 1
Waning Crescent
Nov 6
New
Nov 13
First Quarter
Nov 21
Full
Nov 28
Last Quarter

Hourly Weather History & Observations

Time (EDT) Temp. Dew Point Humidity Pressure Visibility Wind Dir Wind Speed Gust Speed Precip Events Conditions
12:09 AM 62.6 °F 62.6 °F 100% 30.10 in 1.8 mi Calm Calm - N/A   Clear
12:11 AM 62.6 °F 62.6 °F 100% 30.10 in 1.2 mi Calm Calm - N/A   Clear
12:14 AM 62.6 °F 62.6 °F 100% 30.10 in 0.8 mi Calm Calm - N/A   Clear
12:18 AM 62.6 °F 62.6 °F 100% 30.10 in 0.2 mi Calm Calm - N/A Fog Fog
12:28 AM 62.6 °F 62.6 °F 100% 30.10 in 0.8 mi Calm Calm - N/A   Clear
12:32 AM 62.6 °F 60.8 °F 94% 30.10 in 1.2 mi Calm Calm - N/A   Clear
12:34 AM 62.6 °F 60.8 °F 94% 30.09 in 1.8 mi Calm Calm - N/A   Clear
12:37 AM 62.6 °F 62.6 °F 100% 30.10 in 1.0 mi Calm Calm - N/A   Clear
12:39 AM 62.6 °F 62.6 °F 100% 30.10 in 0.5 mi Calm Calm - N/A Fog Fog
12:56 AM 59.0 °F 59.0 °F 100% 30.10 in 0.5 mi Calm Calm - N/A Fog Fog
1:16 AM 60.8 °F 60.8 °F 100% 30.10 in 0.8 mi Calm Calm - N/A   Clear
1:56 AM 59.0 °F 59.0 °F 100% 30.11 in 0.5 mi Calm Calm - N/A Fog Fog
2:41 AM 57.2 °F 57.2 °F 100% 30.10 in 1.0 mi Calm Calm - N/A   Scattered Clouds
2:56 AM 59.0 °F 59.0 °F 100% 30.10 in 1.0 mi Calm Calm - N/A   Scattered Clouds
3:08 AM 57.2 °F 57.2 °F 100% 30.10 in 2.0 mi Calm Calm - N/A   Clear
3:32 AM 57.2 °F 57.2 °F 100% 30.10 in 7.0 mi Calm Calm - N/A Fog Shallow Fog
3:56 AM 55.9 °F 55.0 °F 97% 30.10 in 7.0 mi Calm Calm - N/A Fog Shallow Fog
4:56 AM 55.9 °F 55.9 °F 100% 30.11 in 7.0 mi Calm Calm - N/A   Mostly Cloudy
5:56 AM 55.9 °F 55.0 °F 97% 30.12 in 10.0 mi Calm Calm - N/A   Partly Cloudy
6:56 AM 54.0 °F 54.0 °F 100% 30.13 in 8.0 mi Calm Calm - N/A   Clear
7:56 AM 54.0 °F 53.1 °F 97% 30.14 in 7.0 mi Calm Calm - N/A Fog Shallow Fog
8:56 AM 59.0 °F 55.0 °F 87% 30.16 in 10.0 mi Calm Calm - N/A   Clear
9:56 AM 64.0 °F 55.9 °F 75% 30.18 in 10.0 mi NNW 5.8 mph - N/A   Partly Cloudy
10:56 AM 68.0 °F 55.0 °F 63% 30.18 in 10.0 mi NNE 8.1 mph - N/A   Partly Cloudy
11:56 AM 72.0 °F 54.0 °F 53% 30.18 in 10.0 mi North 4.6 mph - N/A   Partly Cloudy
12:56 PM 73.9 °F 54.0 °F 50% 30.17 in 10.0 mi NE 6.9 mph - N/A   Partly Cloudy
1:56 PM 75.9 °F 50.0 °F 40% 30.15 in 10.0 mi Variable 3.5 mph - N/A   Scattered Clouds
2:56 PM 77.0 °F 51.1 °F 40% 30.15 in 10.0 mi NE 3.5 mph - N/A   Scattered Clouds
3:56 PM 75.9 °F 51.1 °F 42% 30.14 in 10.0 mi Calm Calm - N/A   Scattered Clouds
4:56 PM 73.9 °F 59.0 °F 59% 30.16 in 10.0 mi ESE 9.2 mph - N/A   Scattered Clouds
5:56 PM 70.0 °F 60.1 °F 71% 30.17 in 10.0 mi ESE 9.2 mph - N/A   Scattered Clouds
6:56 PM 66.9 °F 59.0 °F 76% 30.19 in 10.0 mi East 10.4 mph - N/A   Scattered Clouds
7:56 PM 64.0 °F 59.0 °F 84% 30.20 in 10.0 mi NE 5.8 mph - N/A   Clear
8:56 PM 62.1 °F 59.0 °F 90% 30.20 in 8.0 mi NE 6.9 mph - N/A   Clear
9:56 PM 62.1 °F 60.1 °F 93% 30.22 in 8.0 mi ENE 8.1 mph - N/A   Clear
10:56 PM 61.0 °F 59.0 °F 93% 30.23 in 7.0 mi NE 6.9 mph - N/A   Clear
11:56 PM 60.1 °F 57.9 °F 93% 30.23 in 7.0 mi NNE 6.9 mph - N/A   Clear